COSMOS 1275 DEB

Satellite information

Favourite Embed

Satellite Type and Status

DEBRISIN ORBIT

Key statistics

Satellite COSMOS 1275 DEB at a glance.

Uptime

16104

Days in orbit

Revolutions

≈ 14.6

Per day

Orbit

LEO

Low Earth Orbit

Inclination

82.9

Latest

Satellite identification and parameters

Extended collection of information and parameters for COSMOS 1275 DEB.

Object identification

Identified? True

Debris? True

Object name: COSMOS 1275 DEB

International designator: 1981-053DS

Object number (NORAD): 12773

Object ID (CCSDS): 12773

Country: COMMONWEALTH OF INDEPENDENT STATES (CIS)

Current information (Y/N): Y

RCS size: SMALL

Orbital parameters

Period: 98.909 minutes

Inclination: 82.9301 deg

SMA: 7084.619 km

Apoapsis: 780.621 km

Periapsis: 632.346 km

RAAN: 244.1101 deg

Eccentricy: 0.0104646

Argument of periapsis: 251.4165 deg

Mean anomaly: 107.5648 deg

Mean motion: 14.5588825 rev/day

Mean motion (dot): 0.00007875 rev/day2

B* drag term: 0.0016617 1/REarth

Two-line elements (TLE)

Creation date: July 6, 2025, 6:05 p.m.

Reference frame: TEME

Reference center: EARTH

Epoch: July 6, 2025, 1:52 p.m. UTC

TLE line 0: 0 COSMOS 1275 DEB

TLE line 1: 1 12773U 81053DS 25187.57847123 .00007875 00000-0 16617-2 0 9997

TLE line 2: 2 12773 82.9301 244.1101 0104646 251.4165 107.5648 14.55888250226370

Live tracking on map

Real-time ground track for satellite COSMOS 1275 DEB.

In-orbit conjunctions

A list of the most updated potential collisions computed for object COSMOS 1275 DEB.

Target Orbit TCA Probability of collision Miss distance Type
COSMOS 783 LEO 2025-04-14 06:44:00 0.003668527 118.0 (m) PAYLOAD

Associated space launch

Navigation satellite providing location information for the Tsiklon-B navigation system

COSMOS 1275 DEB was lifted into orbit during the mission ‘Kosmos-3M | Parus 27’, on board a Kosmos-3M space rocket.

The launch took place on June 4, 1981, 3:41 p.m. from 132/2.

For more information about the launch, click the button.

Launch to space Kosmos-3M | Parus 27
Kosmos-3M | Parus 27

Agency: N/A

Status: Launch Successful

Launch date: June 4, 1981, 3:41 p.m. UTC

Rocket: Kosmos-3M

Launch pad: 132/2

Location: Plesetsk Cosmodrome, Russian Federation

...

Latest news about this satellite

There are no fresh news available about this satellite. Check back as we update our databases every day.


Newsletter sign-up

Weekly statistics, charts and insights to help you stay on top of the space industry.